AF9W-5 Weather Reports


Display with metric or nautical units.
time (UTC)temp
F
wind
direction
speed
MPH
gust
MPH
rain 1hr
in
rain 24hr
in
rain mn
in
humidity
%
barometer
mb
20260505210333 70 80 1.0 1.0 0.00 0.26 0.26 48 1010.6
20260505205829 70 320 3.0 5.0 0.00 0.26 0.26 49 1010.7
20260505205328 70 180 2.0 3.0 0.00 0.26 0.26 50 1010.7
20260505204824 71 181 1.0 1.0 0.00 0.26 0.26 49 1010.6
20260505204322 72 235 3.0 5.0 0.00 0.26 0.26 47 1010.7
20260505203819 71 177 1.0 2.0 0.00 0.26 0.26 48 1010.8
20260505203316 70 341 2.0 2.0 0.00 0.26 0.26 48 1010.8
20260505202812 70 172 8.0 11.0 0.00 0.26 0.26 44 1010.7
20260505202308 71 189 3.0 3.0 0.00 0.26 0.26 47 1010.9
20260505201805 71 168 4.0 5.0 0.00 0.26 0.26 49 1010.7
20260505201303 71 165 3.0 5.0 0.00 0.26 0.26 47 1010.9
20260505200801 72 326 3.0 5.0 0.00 0.26 0.26 46 1011.0
20260505200257 70 187 1.0 2.0 0.00 0.26 0.26 46 1011.0
20260505195753 70 229 5.0 6.0 0.00 0.26 0.26 50 1011.3
20260505195250 67 213 5.0 8.0 0.00 0.26 0.26 55 1011.2
20260505194747 68 159 6.0 7.0 0.00 0.26 0.26 55 1011.0
20260505194244 68 95 1.0 2.0 0.00 0.26 0.26 55 1011.2
20260505193739 69 150 1.0 1.0 0.00 0.26 0.26 54 1011.2
20260505193237 70 132 1.0 1.0 0.00 0.26 0.26 53 1011.3
20260505192736 69 213 3.0 3.0 0.00 0.26 0.26 55 1011.3
20260505192233 69 156 3.0 3.0 0.00 0.26 0.26 54 1011.2
20260505191731 68 189 5.0 6.0 0.00 0.26 0.26 55 1011.4
20260505191229 69 184 3.0 7.0 0.00 0.26 0.26 54 1011.2
20260505190725 69 155 4.0 5.0 0.00 0.26 0.26 53 1011.5
20260505190225 68 166 2.0 2.0 0.00 0.26 0.26 55 1011.7
20260505185722 67 178 3.0 3.0 0.00 0.26 0.26 57 1011.7
20260505185219 66 171 5.0 6.0 0.00 0.26 0.26 61 1012.0
20260505184714 66 80 1.0 1.0 0.00 0.26 0.26 62 1011.9
20260505184212 66 165 5.0 7.0 0.00 0.26 0.26 60 1011.7
20260505183709 67 168 4.0 6.0 0.00 0.26 0.26 60 1012.1
20260505183206 66 185 3.0 5.0 0.00 0.26 0.26 58 1012.2
20260505182702 66 173 3.0 5.0 0.00 0.26 0.26 60 1012.2
20260505182159 65 162 2.0 3.0 0.00 0.26 0.26 61 1012.0
20260505181656 66 209 3.0 3.0 0.00 0.26 0.26 59 1012.3
20260505181153 66 198 2.0 3.0 0.00 0.26 0.26 60 1012.2
20260505180649 65 202 1.0 3.0 0.00 0.26 0.26 62 1012.4
20260505180147 66 170 4.0 7.0 0.00 0.26 0.26 60 1012.4
20260505175642 65 104 1.0 1.0 0.00 0.26 0.26 63 1012.4
20260505175139 62 185 3.0 3.0 0.00 0.26 0.26 67 1012.4
20260505174636 63 208 4.0 7.0 0.00 0.26 0.26 66 1012.5
20260505174132 63 172 5.0 7.0 0.00 0.26 0.26 67 1012.3
20260505173629 63 189 3.0 3.0 0.00 0.26 0.26 68 1012.5
20260505173126 63 212 3.0 3.0 0.00 0.26 0.26 69 1012.5
20260505172623 63 96 1.0 1.0 0.00 0.26 0.26 71 1012.3
20260505172120 62 165 5.0 6.0 0.00 0.26 0.26 70 1012.2
20260505171615 63 183 1.0 2.0 0.00 0.26 0.26 71 1012.3
20260505171112 63 66 2.0 2.0 0.00 0.26 0.26 72 1012.6
20260505170609 62 94 1.0 1.0 0.00 0.26 0.26 73 1012.2
20260505170105 62 210 2.0 3.0 0.00 0.26 0.26 72 1012.4
20260505165600 62 149 2.0 3.0 0.00 0.26 0.26 73 1012.2
20260505165056 62 189 1.0 1.0 0.00 0.26 0.26 73 1012.2
20260505164552 62 161 2.0 2.0 0.00 0.26 0.26 75 1012.5
20260505164050 61 188 2.0 2.0 0.00 0.26 0.26 76 1012.3
20260505163548 60 167 1.0 2.0 0.00 0.26 0.26 78 1012.2
20260505163045 60 158 1.0 2.0 0.00 0.26 0.26 79 1012.1
20260505162543 60 123 1.0 1.0 0.00 0.26 0.26 80 1012.3
20260505162041 59 168 1.0 2.0 0.00 0.26 0.26 81 1012.4
20260505161537 59 229 2.0 3.0 0.00 0.26 0.26 81 1012.3
20260505161035 59 155 3.0 3.0 0.00 0.26 0.26 82 1012.3
20260505160533 60 132 1.0 2.0 0.00 0.26 0.26 85 1012.4
20260505153009 58 101 1.0 1.0 0.00 0.26 0.26 88 1012.2
20260505152506 58 179 1.0 2.0 0.00 0.26 0.26 89 1012.3
20260505152002 58 168 1.0 2.0 0.00 0.26 0.26 89 1012.2
20260505151457 58 165 1.0 1.0 0.00 0.26 0.26 90 1012.0
20260505150955 58 136 0.0 1.0 0.00 0.26 0.26 89 1012.0
20260505150451 58 161 2.0 2.0 0.00 0.26 0.26 90 1012.1
20260505140422 57 98 0.0 0.0 0.00 0.26 0.26 94 1012.0
20260505124835 55 84 0.0 0.0 0.00 0.26 0.26 94 1011.2
20260505124332 55 89 0.0 0.0 0.00 0.26 0.26 94 1011.0
20260505123828 55 99 0.0 0.0 0.00 0.26 0.26 94 1011.2
20260505123325 55 93 0.0 0.0 0.00 0.26 0.26 94 1010.7
20260505122821 55 97 0.0 0.0 0.00 0.26 0.26 94 1011.1
20260505122318 55 93 0.0 0.0 0.00 0.26 0.26 94 1010.9
20260505121815 55 113 0.0 0.0 0.00 0.26 0.26 94 1011.0
20260505121312 55 105 0.0 0.0 0.00 0.26 0.26 94 1010.9
20260505120808 55 297 0.0 1.0 0.00 0.26 0.26 94 1010.9
20260505120304 55 338 0.0 0.0 0.00 0.26 0.26 94 1010.9
20260505115802 55 338 0.0 0.0 0.00 0.26 0.26 94 1011.0
20260505115300 55 56 1.0 1.0 0.00 0.26 0.26 94 1010.4
20260505114757 55 86 0.0 0.0 0.00 0.26 0.26 94 1010.2
20260505114254 55 313 0.0 0.0 0.00 0.26 0.26 94 1010.3
20260505113750 56 313 0.0 1.0 0.07 0.26 0.26 94 1010.7
20260505113247 56 290 3.0 3.0 0.07 0.26 0.26 94 1010.8
20260505112743 55 335 0.0 1.0 0.07 0.26 0.26 94 1010.8
20260505112241 56 25 0.0 0.0 0.00 0.25 0.25 94 1010.9
20260505111740 55 80 0.0 0.0 0.00 0.25 0.25 94 1010.4
20260505111237 56 44 1.0 1.0 0.05 0.25 0.25 94 1011.0
20260505110732 56 11 2.0 2.0 0.05 0.25 0.25 94 1011.0
20260505110231 56 89 0.0 0.0 0.00 0.24 0.24 94 1011.1
20260505102206 56 274 3.0 3.0 0.07 0.22 0.22 94 1011.4
20260505101705 56 138 1.0 1.0 0.07 0.22 0.22 94 1011.7
20260505101201 56 309 4.0 5.0 0.00 0.21 0.21 94 1011.5
20260505100657 56 83 0.0 1.0 0.00 0.21 0.21 94 1011.5
20260505100154 56 333 2.0 2.0 0.00 0.21 0.21 94 1011.3
20260505095649 56 84 0.0 0.0 0.05 0.21 0.21 94 1011.5
20260505095147 56 81 0.0 0.0 0.05 0.21 0.21 94 1011.1
20260505094643 56 13 0.0 0.0 0.00 0.20 0.20 94 1011.4
20260505094139 56 94 0.0 0.0 0.07 0.20 0.20 94 1011.7
20260505093636 56 94 0.0 0.0 0.07 0.20 0.20 94 1011.7
20260505093133 56 99 0.0 0.0 0.07 0.19 0.19 94 1011.7
20260505092630 56 106 0.0 0.0 0.07 0.19 0.19 94 1011.9
20260505092129 56 80 0.0 1.0 0.07 0.19 0.19 94 1012.4
20260505091625 56 93 0.0 1.0 0.05 0.18 0.18 94 1011.9
20260505091124 56 78 0.0 0.0 0.12 0.18 0.18 93 1011.9
20260505090621 56 39 1.0 1.0 0.07 0.17 0.17 93 1011.7
20260505090119 56 93 0.0 0.0 0.05 0.16 0.16 93 1012.1
20260505085616 56 94 0.0 0.0 0.12 0.16 0.16 93 1012.3
20260505085114 56 87 0.0 0.0 0.07 0.15 0.15 93 1012.6
20260505084612 56 110 0.0 0.0 0.05 0.14 0.14 93 1012.8
20260505084110 56 150 0.0 0.0 0.05 0.14 0.14 93 1012.8
20260505083607 56 135 0.0 1.0 0.07 0.13 0.13 93 1013.0
20260505083103 56 113 0.0 0.0 0.07 0.13 0.13 93 1013.3
20260505082559 56 189 2.0 2.0 0.05 0.12 0.12 93 1013.4
20260505082056 56 169 1.0 1.0 0.12 0.12 0.12 93 1013.3
20260505081553 56 143 1.0 2.0 0.07 0.11 0.11 94 1013.4
20260505081050 56 136 0.0 1.0 0.05 0.10 0.10 94 1013.7
20260505080546 56 190 0.0 1.0 0.05 0.10 0.10 94 1013.9
20260505080043 56 160 2.0 2.0 0.07 0.09 0.09 93 1013.9
20260505075538 56 166 2.0 3.0 0.12 0.09 0.09 93 1013.9
20260505075036 56 158 4.0 5.0 0.12 0.08 0.08 93 1014.1
20260505074533 56 159 2.0 3.0 0.14 0.07 0.07 93 1014.1
20260505074030 57 107 0.0 0.0 0.12 0.06 0.06 93 1014.2
20260505073527 57 130 0.0 0.0 0.12 0.05 0.05 93 1014.4
20260505073026 56 120 1.0 1.0 0.07 0.04 0.04 93 1014.5
20260505072521 57 137 1.0 1.0 0.05 0.03 0.03 93 1014.5
20260505072017 57 149 0.0 0.0 0.12 0.03 0.03 93 1014.6
20260505071513 57 133 0.0 0.0 0.07 0.02 0.02 93 1014.2
20260505071011 57 105 0.0 0.0 0.05 0.01 0.01 93 1014.2
20260505070508 57 124 1.0 1.0 0.05 0.01 0.01 93 1014.4
20260505070004 57 104 0.0 0.0 0.07 0.18 0.18 93 1014.5
20260505065500 57 94 0.0 1.0 0.12 0.18 0.18 93 1014.2
20260505064957 57 111 0.0 0.0 0.05 0.17 0.17 93 1014.0
20260505064453 57 166 1.0 1.0 0.12 0.17 0.17 93 1014.4
20260505063952 57 121 0.0 0.0 0.12 0.16 0.16 93 1014.4
20260505063448 56 137 0.0 0.0 0.12 0.15 0.15 93 1014.5
20260505062945 56 103 0.0 0.0 0.07 0.14 0.14 93 1014.6
20260505062442 56 124 0.0 0.0 0.05 0.13 0.13 93 1014.5
20260505061939 56 101 0.0 0.0 0.05 0.13 0.13 93 1014.6
20260505061437 56 116 0.0 1.0 0.00 0.12 0.12 92 1014.4
20260505060934 56 139 0.0 0.0 0.00 0.12 0.12 92 1014.4
20260505060431 56 115 0.0 0.0 0.07 0.12 0.12 92 1014.3
20260505055927 56 5 1.0 2.0 0.07 0.12 0.12 92 1014.2
20260505055424 56 101 0.0 0.0 0.00 0.11 0.11 92 1013.9
20260505054920 56 70 0.0 0.0 0.00 0.11 0.11 92 1014.1
20260505054418 56 126 0.0 1.0 0.00 0.11 0.11 92 1013.9
20260505053916 56 105 0.0 0.0 0.00 0.11 0.11 92 1014.1
20260505053412 56 78 0.0 0.0 0.00 0.11 0.11 92 1014.1
20260505052909 56 93 0.0 0.0 0.07 0.11 0.11 91 1013.7
20260505052406 56 115 0.0 0.0 0.07 0.11 0.11 91 1014.0
20260505051903 56 140 1.0 1.0 0.00 0.10 0.10 90 1013.7
20260505051401 56 158 2.0 2.0 0.00 0.10 0.10 90 1013.9
20260505050859 56 162 2.0 2.0 0.00 0.10 0.10 89 1013.7
20260505050357 56 195 4.0 5.0 0.05 0.10 0.10 88 1013.9
20260505041324 57 156 3.0 5.0 0.07 0.05 0.05 83 1014.2
20260505040821 58 202 4.0 7.0 0.07 0.05 0.05 80 1014.2
20260505040319 58 220 7.0 11.0 0.00 0.04 0.04 78 1014.1
20260505035815 58 244 4.0 6.0 0.00 0.04 0.04 79 1014.2
20260505035311 57 131 1.0 1.0 0.00 0.04 0.04 84 1014.0
20260505034809 57 266 1.0 2.0 0.00 0.04 0.04 85 1014.0
20260505034305 57 93 0.0 0.0 0.00 0.04 0.04 85 1013.3
20260505033802 57 223 2.0 3.0 0.00 0.04 0.04 87 1013.2
20260505033259 57 100 0.0 0.0 0.00 0.04 0.04 89 1012.9
20260505032758 57 128 0.0 0.0 0.00 0.04 0.04 89 1012.9
20260505032253 57 132 0.0 0.0 0.00 0.04 0.04 90 1013.1
20260505031750 57 93 0.0 0.0 0.00 0.04 0.04 90 1012.9
20260505031246 57 110 0.0 0.0 0.05 0.04 0.04 89 1013.0
20260505030744 57 104 0.0 0.0 0.05 0.04 0.04 89 1013.3
20260505030240 57 107 0.0 0.0 0.00 0.03 0.03 88 1013.3
20260505025735 57 101 0.0 0.0 0.00 0.03 0.03 86 1013.5
20260505025234 57 117 0.0 0.0 0.00 0.03 0.03 84 1013.1
20260505024732 57 181 2.0 2.0 0.07 0.03 0.03 83 1013.2
20260505024229 57 176 5.0 6.0 0.07 0.03 0.03 81 1013.0
20260505023726 56 133 2.0 2.0 0.00 0.02 0.02 83 1013.2
20260505023223 56 161 5.0 6.0 0.00 0.02 0.02 79 1013.2
20260505022721 56 149 2.0 2.0 0.05 0.02 0.02 83 1013.5
20260505022217 56 184 1.0 1.0 0.05 0.02 0.02 83 1013.7
20260505021714 56 131 2.0 2.0 0.05 0.02 0.02 81 1013.6
20260505021211 57 133 2.0 3.0 0.00 0.01 0.01 79 1014.1
20260505020707 57 199 3.0 3.0 0.00 0.01 0.01 79 1014.3
20260505020202 56 173 3.0 3.0 0.00 0.01 0.01 80 1014.4
20260505015700 57 141 2.0 2.0 0.00 0.01 0.01 78 1014.2
20260505015157 57 156 2.0 2.0 0.00 0.01 0.01 78 1014.3
20260505014654 57 183 5.0 6.0 0.00 0.01 0.01 73 1014.1
20260505014151 58 165 5.0 7.0 0.00 0.01 0.01 70 1014.1
20260505013648 59 197 3.0 5.0 0.07 0.01 0.01 69 1014.3
20260505013145 60 166 4.0 6.0 0.07 0.01 0.01 67 1014.0
20260505012643 62 173 3.0 5.0 0.00 0.00 0.00 60 1014.0
20260505012140 63 233 5.0 7.0 0.00 0.00 0.00 53 1013.7
20260505011636 64 197 3.0 5.0 0.00 0.00 0.00 48 1013.4
20260505011133 64 179 3.0 6.0 0.00 0.00 0.00 48 1013.4
20260505010628 64 168 2.0 2.0 0.00 0.00 0.00 50 1013.3
20260505010125 65 190 5.0 7.0 0.00 0.00 0.00 50 1013.3
20260505005620 66 194 3.0 3.0 0.00 0.00 0.00 49 1013.4
20260505005118 67 217 4.0 5.0 0.00 0.00 0.00 43 1013.1
20260505004615 67 190 5.0 8.0 0.00 0.00 0.00 42 1013.2
20260505004112 67 202 4.0 6.0 0.00 0.00 0.00 41 1013.3
20260505003610 68 140 2.0 3.0 0.00 0.00 0.00 42 1013.3
20260505003107 68 170 3.0 3.0 0.00 0.00 0.00 43 1013.2
20260505002602 67 216 6.0 8.0 0.00 0.00 0.00 44 1013.2
20260505002101 68 196 5.0 6.0 0.00 0.00 0.00 44 1013.4
20260505001557 68 235 3.0 3.0 0.00 0.00 0.00 45 1013.3
20260505001055 67 151 3.0 3.0 0.00 0.00 0.00 46 1013.2
20260505000552 67 168 2.0 2.0 0.00 0.00 0.00 44 1012.8
20260505000049 67 185 2.0 3.0 0.00 0.00 0.00 44 1013.0
20260504235546 67 174 5.0 6.0 0.00 0.00 0.00 42 1012.8
20260504235043 67 184 4.0 6.0 0.00 0.00 0.00 47 1012.8
20260504234540 67 147 3.0 6.0 0.00 0.00 0.00 47 1012.8
20260504234037 67 147 5.0 6.0 0.00 0.00 0.00 45 1013.0
20260504233532 67 164 4.0 6.0 0.00 0.00 0.00 44 1013.0
20260504233029 67 178 5.0 7.0 0.00 0.00 0.00 44 1013.4
20260504232526 68 192 3.0 3.0 0.00 0.00 0.00 43 1013.6
20260504232024 69 134 4.0 7.0 0.00 0.00 0.00 40 1013.7
20260504231520 69 175 3.0 5.0 0.00 0.00 0.00 38 1013.5
20260504231017 72 234 2.0 5.0 0.00 0.00 0.00 32 1014.1
20260504230513 73 170 2.0 2.0 0.00 0.00 0.00 30 1013.6
20260504230012 73 168 10.0 13.0 0.00 0.00 0.00 29 1013.2
20260504225508 72 174 2.0 3.0 0.00 0.00 0.00 28 1013.1
20260504225005 75 190 3.0 7.0 0.00 0.00 0.00 29 1013.4
20260504224501 75 303 1.0 1.0 0.00 0.00 0.00 25 1013.3
20260504223959 76 143 1.0 1.0 0.00 0.00 0.00 24 1013.1
20260504223455 75 78 2.0 2.0 0.00 0.00 0.00 24 1013.0
20260504222951 77 112 1.0 2.0 0.00 0.00 0.00 24 1012.9
20260504222449 77 137 0.0 0.0 0.00 0.00 0.00 23 1013.1
20260504221946 77 182 0.0 1.0 0.00 0.00 0.00 23 1013.2
20260504221443 77 19 1.0 1.0 0.00 0.00 0.00 23 1013.2
20260504220940 77 112 1.0 1.0 0.00 0.00 0.00 23 1013.5
20260504220436 78 184 1.0 2.0 0.00 0.00 0.00 23 1013.4
20260504215933 78 97 2.0 2.0 0.00 0.00 0.00 23 1013.3
20260504215430 78 248 2.0 2.0 0.00 0.00 0.00 23 1013.2
20260504214927 79 38 2.0 2.0 0.00 0.00 0.00 23 1013.1
20260504214423 78 183 1.0 1.0 0.00 0.00 0.00 24 1013.1
20260504213920 78 118 1.0 1.0 0.00 0.00 0.00 24 1012.9
20260504213416 77 206 2.0 3.0 0.00 0.00 0.00 25 1013.0
20260504212915 78 172 1.0 2.0 0.00 0.00 0.00 26 1013.0
20260504212415 77 142 2.0 2.0 0.00 0.00 0.00 26 1013.1
20260504211913 78 134 1.0 1.0 0.00 0.00 0.00 26 1013.1
20260504211409 78 38 1.0 1.0 0.00 0.00 0.00 26 1013.4
20260504210906 77 136 1.0 2.0 0.00 0.00 0.00 26 1013.2